Regional Weather Roundup
Issued by NWS Wakefield, VA

Home | Current Version | Previous Version | Text Only | Print | Product List | Glossary Off
Versions: 1 2 3 4 5 6 7 8 9 10 11 12 13 14 15 16 17 18 19 20 21 22 23 24 25 26 27
000 ASUS41 KAKQ 230110 RWRAKQ REGIONAL WEATHER ROUNDUP NATIONAL WEATHER SERVICE WAKEFIELD VA 900 PM EDT WED OCT 22 2014 Note: "fair" indicates few or no clouds below 12,000 feet with no significant weather and/or obstructions to visibility. * = Denotes station may not report precipitation (e.g., rain,snow,etc.), thunder or fog. VAZ042-051-052>054-056-230200- NORTHERN VIRGINIA CITY SKY/WX TMP DP RH WIND PRES REMARKS WASH NATIONAL CLOUDY 58 46 64 NW15 29.95R DULLES CLOUDY 53 44 71 NW14 29.97R FORT BELVOIR CLOUDY 56 45 66 NW17G30 29.95R QUANTICO PTCLDY 55 44 66 N16G28 29.96R FREDERICKSBRG* MOCLDY 55 46 73 NW15G22 29.96R STAFFORD* PTCLDY 52 43 71 NW21G26 30.00R WARRENTON PTCLDY 53 48 84 NW9G18 29.98R CULPEPER* PTCLDY 54 43 66 N9 30.00R MANASSAS* CLEAR 54 45 71 NW18G28 29.97R LEESBURG* PTCLDY 54 46 76 N16 29.99R WINCHESTER PTCLDY 52 37 58 NW17G24 30.03S FRONT ROYAL* CLOUDY 52 41 66 NW7G16 30.03S LURAY* CLOUDY 54 43 66 N3G18 30.04S $$ VAZ048-049-060>072-079>083-230200- CENTRAL AND SOUTH CENTRAL VIRGINIA...AND NORTH CENTRAL NORTH CAROLINA CITY SKY/WX TMP DP RH WIND PRES REMARKS RICHMOND CLOUDY 56 45 66 NW18G26 29.95S CHESTERFIELD* CLOUDY 54 37 54 NW9 29.98R PETERSBURG* PTCLDY 53 45 73 W6 29.97S HANOVER CLOUDY 54 45 71 NW9G20 29.97S TAPPAHANNOCK* LGT RAIN 54 47 79 W5 29.94R CHARLOTTSVILLE CLEAR 54 41 61 NW13 29.99S ORANGE* CLEAR 54 43 66 NW8 30.00R LOUISA* CLEAR 52 45 76 NW3 29.97R FARMVILLE* CLEAR 50 43 76 CALM 29.98S CREWE* CLEAR 51 44 77 NW5 29.98S FORT PICKETT* CLEAR 51 45 80 NW7 29.98S LUNENBURG* CLEAR 53 46 76 NW3 29.99R SOUTH HILL* PTCLDY 54 46 76 CALM 30.04R LAWRENCEVILLE* CLEAR 52 46 80 NW3 29.98R ROANOKE RAPIDS CLOUDY 54 45 71 N9 29.98R RALEIGH PTCLDY 55 42 61 W5 30.01R $$ VAZ088>098-230200- SOUTHEAST VIRGINIA CITY SKY/WX TMP DP RH WIND PRES REMARKS NORFOLK CLOUDY 56 49 77 NW15G28 29.88S VIRGINIA BEACH LGT RAIN 58 51 78 NW18G26 29.86S NORFOLK NAVAL LGT RAIN 58 49 72 NW21G33 29.90S WEST POINT* CLOUDY 56 49 77 NW7 29.94R NEWPORT NEWS CLOUDY 57 49 74 NW18G25 29.90S LANGLEY AFB CLOUDY 55 51 84 NW20G31 29.89F FORT EUSTIS CLOUDY 55 55 100 NW15G28 29.90S WILLIAMSBURG* PTCLDY 55 52 88 NW14G20 29.93S HR EXEC AP* CLOUDY 55 48 76 NW7G16 29.94R FRANKLIN* CLOUDY 54 48 82 NW5 29.94S WAKEFIELD CLOUDY 54 48 80 VRB3 29.94S $$ VAZ020-022-025-037-045-230200- WEST CENTRAL AND SOUTHWEST VIRGINIA CITY SKY/WX TMP DP RH WIND PRES REMARKS STAUNTON* CLEAR 50 41 69 N9 30.07R HOT SPRINGS VA CLOUDY 41 37 86 NW13G21 30.05R LYNCHBURG CLEAR 53 40 61 VRB7 30.03R DANVILLE CLEAR 54 40 59 NW9 30.04R SOUTH BOSTON* NOT AVBL MARTINSVILLE CLEAR 47 41 79 NW3 30.09S ROANOKE PTCLDY 52 38 58 W6 30.10R BLACKSBURG PTCLDY 48 43 81 NW8 30.12S DUBLIN* CLOUDY 48 42 78 NW13 30.14S MARION* CLOUDY 46 39 77 W7 30.19R HILLSVILLE* CLOUDY 44 38 78 NW18 30.10S RICHLANDS* CLOUDY 45 43 93 NW6 30.19R FOG WISE* CLOUDY 43 43 100 N7 30.22R ABINGDON* CLOUDY 46 42 83 N5 30.20S $$ MDZ021>025-VAZ099-100-230200- SOUTHERN MARYLAND AND THE DELMARVA PENINSULA CITY SKY/WX TMP DP RH WIND PRES REMARKS PATUXENT RIVER LGT RAIN 54 49 83 NW22G30 29.89S BAY BRIDGE APT DRIZZLE 54 46 76 NW18G26 29.90S LEONARDTOWN CLOUDY 52 48 87 NW8 29.92S DOVER LGT RAIN 53 53 100 NW18 29.81S GEORGETOWN LGT RAIN 53 50 89 NW9G20 29.82S EASTON PTCLDY 55 54 94 N20G28 29.91S CAMBRIDGE CLOUDY 55 48 76 NW17G30 29.86S VSB<1/4 SALISBURY LGT RAIN 56 50 80 NW17G26 29.83R OCEAN CITY LGT RAIN 53 51 93 N14G24 29.79S FOG WALLOPS ISLAND CLOUDY 55 51 86 N18G28 29.82S ACCOMACK* CLOUDY 55 48 76 N21G30 29.84S $$ NCZ012>017-030>032-230200- EASTERN NORTH CAROLINA CITY SKY/WX TMP DP RH WIND PRES REMARKS ELIZABETH CITY CLOUDY 58 49 72 NW16G25 29.90R AHOSKIE* CLOUDY 55 46 71 NW3 29.96S EDENTON* CLOUDY 56 49 77 NW12 29.93S CURRITUCK* CLOUDY 55 49 82 NW8 29.89S KILL DEVIL HLS CLOUDY 56 51 81 NW15G24 29.86R MANTEO CLOUDY 57 50 77 NW16G28 29.88R CAPE HATTERAS CLOUDY 58 51 78 NW17G28 29.89R TARBORO* CLOUDY 57 47 70 N7 29.99R GOLDSBORO CLOUDY 59 48 66 CALM 29.97R WASHINGTON CLOUDY 56 47 73 NW6 29.97R GREENVILLE CLOUDY 55 50 82 N7 29.99R NEW BERN CLOUDY 60 49 66 NW7 29.97R WILMINGTON CLEAR 57 47 69 NW8 29.99R $$ VAZ048-230200- ELSEWHERE CITY SKY/WX TMP DP RH WIND PRES REMARKS HARRISBURG PA LGT RAIN 52 43 71 NW13 29.96S BALTIMORE CLOUDY 54 45 71 NW14G21 29.93R ANNAPOLIS CLOUDY 56 48 74 NW16 29.91S ANDREWS AFB DRIZZLE 54 46 76 NW20G26 29.93R WILMINGTON DE LGT RAIN 53 49 86 NW18G26 29.86F PHILADELPHIA LGT RAIN 54 49 83 NW16 29.84S WILDWOOD NJ* CLOUDY 54 48 82 N12G20 29.79S ATLANTIC CITY LGT RAIN 52 50 93 N16G29 29.76F HENDERSON NC MOCLDY 55 43 63 NW3 30.00R GREENSBORO CLEAR 51 39 63 NW9 30.05S ROCKY MOUNT CLOUDY 59 48 67 N6 29.98R FAYETTEVILLE CLEAR 59 41 51 NW10 30.01R CHARLOTTE CLEAR 51 38 60 N8 30.10R $$ VAZ100-230200- MARINE STATION/POSITION TIME TEMP WIND PRES WAVE SWELL AIR SEA DIR/SP/G HT/PER HT/PER (UTC) (F) (DEG/KT/KT) (MB) (FT/S) (FT/S) 44066 TX TWR #4 0100 58 66 340/ 25/ 35 999.8F CAPE MAY NJ 0100 55 67 340/ 19/ 27 1008.0S LEWES DE 0100 56 62 360/ 30/ 36 1008.9R 15NM E FENWICK I 0100 58 65 330/ 33/ 43 1006.0S 13/ 8 OCEAN-CITY-INLET 0100 55 64 350/ 17/ 21 1008.1R WACHAPREAGUE VA 0100 56 62 350/ 9/ 17 1010.0S THOMAS POINT MD 0100 56 63 330/ 21/ 25 1013.1S GOOSES REEF MD 0100 56 350/ 21/ 25 1012.9R COVE POINT MD 0100 55 350/ 25/ 29 1012.0S SOLOMONS ISLAND 0100 64 N/A BISHOPS HEAD MD 0100 54 58 330/ 16/ 22 1011.0R PINEY POINT MD 0100 350/ 22/ 24 N/A POTOMAC MD 0100 56 350/ 19/ 23 1011.8R CAMBRIDGE MD 0100 57 62 330/ 22/ 27 1011.1S LEWISETTA VA 0100 56 61 340/ 19/ 28 1012.2S RAPPAHANNOCK LGT 0100 320/ 35/ 39 1011.0S STINGRAY PT 0100 57 330/ 21/ 25 1012.2S YORK RVR RNG VA 0100 56 330/ 21/ 26 1011.7S YORKTOWN VA 0100 56 66 320/ 22/ 25 1012.2S JAMESTOWN VA 0100 56 340/ 16/ 19 N/A DOMINION TERM VA 0100 56 340/ 19/ 25 1012.5R KIPTOPEKE VA 0100 65 340/ 28/ 34 N/A CHES BAY BRIDGE 0100 58 66 310/ 28/ 35 1011.0F CHESAPEAKE LGHT 0000 58 320/ 36/ 40 1010.0R WILLOUBY STN VA 0100 56 330/ 23/ 26 1010.8F S CRANEY ISL VA 0100 300/ 15/ 22 1011.9R CAPE HENRY BUOY 0000 68 N/A 8/ 6 1ST LANDING BUOY 0100 59 330/ 27/ 35 1010.8S CAPE CHARLES BUO 0100 68 N/A 6/ 6 2/10 64NM E OF VA BCH 0100 62 69 340/ 29/ 35 1006.8R 10/ 7 DUCK PIER NC 0100 56 68 310/ 22/ 25 1010.2S 44100 DUCK FRF 0100 70 N/A 7/ 6 44056 DUCK FRF 0100 N/A 4/ 6 OREGON INLET NC 0100 58 64 310/ 19/ 25 1011.1R HATTERAS NC 0100 60 67 310/ 25/ 30 1012.4R DIAMOND SHLS NC 0100 62 310/ 27/ 33 1011.3R 7/ 5 2/11 CAPE LOOKOUT NC 0000 61 310/ 13/ 17 1013.5R $$

USA.gov is the U.S. government's official web portal to all federal, state and local government web resources and services.